Location: Blanton
(30.8302°N, 83.1188°W)
Time: 11:32:26
(UTC+00:00)

ISS - Visible Passes

Search period start: 05 December 2021 00:00
Search period end: 15 December 2021 00:00
Orbit: 417 x 422 km, 51.6° (Epoch: 05 December)

Date Brightness Start Highest point End Pass type
(mag) Time Alt. Az. Time Alt. Az. Time Alt. Az.
06 Dec -1.5 00:04:15 10° NNW 00:05:06 15° N 00:05:06 15° N visible
06 Dec -2.0 23:17:24 10° N 23:19:40 16° NE 23:20:29 15° NE visible
07 Dec -0.4 00:53:24 10° WNW 00:53:31 11° WNW 00:53:31 11° WNW visible
08 Dec -3.8 00:05:52 10° NW 00:09:15 81° SW 00:09:18 81° SSW visible
08 Dec -3.6 23:18:33 10° NNW 23:21:52 49° NE 23:25:08 10° ESE visible
09 Dec -0.3 00:57:50 10° WSW 00:58:17 10° SW 00:58:44 10° SW visible
10 Dec -1.0 00:08:31 10° W 00:11:03 20° SW 00:13:34 10° S visible
10 Dec -2.1 23:20:36 10° WNW 23:23:45 38° SW 23:26:54 10° SSE visible
12 Dec 0.4 23:25:10 10° WSW 23:25:23 10° SW 23:25:36 10° SW visible
